Tracking 18980 objects as of 19-Feb-2018
HD Live streaming from Space Station
objects crossing your sky now

FENGYUN 1C DEB

Track FENGYUN 1C DEB now!
10-day predictions


NORAD ID: 31827
Int'l Code: 1999-025CHR
Perigee: 841.6 km
Apogee: 1,032.4 km
Inclination: 97.7 °
Period: 103.6 minutes
Semi major axis: 7307 km
RCS: 0.0105 m2 (small)
Launch date: May 10, 1999
Source: People's Republic of China (PRC)
Launch site: Taiyaun Space Center, China (TSC)

Note: This is SATELLITE DEBRIS
aabbcc
Your satellite tracking list
Your tracking list is empty




NASA's NSSDC Master Catalog

Two Line Element Set (TLE):
1 31827U 99025CHR 18049.86126546 +.00000616 +00000-0 +49419-3 0  9999
2 31827 097.6588 081.0154 0130550 340.8481 018.7799 13.89661253218261
Source of the keplerian elements: AFSPC